KKSNEWCA7 Weather Reports


time (UTC)temp
C
wind
direction
speed
KPH
gust
KPH
rain 1hr
cm
rain 24hr
cm
rain mn
cm
humidity
%
barometer
mb
20260507145015 13 265 20.9 29.0 0.00 0.00 0.00 62 1017.0
20260507144532 13 276 19.3 30.6 0.00 0.00 0.00 62 1016.9
20260507144014 12 257 16.1 27.4 0.00 0.00 0.00 65 1017.1
20260507143513 12 271 16.1 29.0 0.00 0.00 0.00 66 1016.9
20260507143037 12 277 16.1 29.0 0.00 0.00 0.00 65 1017.0
20260507142512 12 270 14.5 32.2 0.00 0.00 0.00 66 1017.1
20260507142014 12 260 19.3 32.2 0.00 0.00 0.00 68 1017.2
20260507141535 11 263 12.9 22.5 0.00 0.00 0.00 70 1017.2
20260507141013 11 273 11.3 24.1 0.00 0.00 0.00 68 1017.2
20260507140512 11 275 11.3 24.1 0.00 0.00 0.00 72 1017.4
20260507140035 11 266 14.5 22.5 0.00 0.00 0.00 71 1017.3
20260507135519 11 256 11.3 32.2 0.00 0.00 0.00 74 1017.4
20260507135014 10 259 19.3 32.2 0.00 0.00 0.00 72 1017.4
20260507134539 10 272 12.9 22.5 0.00 0.00 0.00 74 1017.4
20260507134014 10 287 9.7 22.5 0.00 0.00 0.00 76 1017.5
20260507133518 10 312 11.3 27.4 0.00 0.00 0.00 74 1017.6
20260507133038 10 272 14.5 24.1 0.00 0.00 0.00 75 1017.5
20260507132517 10 274 11.3 27.4 0.00 0.00 0.00 77 1017.5
20260507132014 10 294 14.5 27.4 0.00 0.00 0.00 76 1017.5
20260507131536 10 289 11.3 20.9 0.00 0.00 0.00 78 1017.7
20260507131014 9 274 12.9 22.5 0.00 0.00 0.00 78 1017.7
20260507130516 9 285 14.5 20.9 0.00 0.00 0.00 79 1017.6
20260507130054 8 275 12.9 19.3 0.00 0.00 0.00 80 1017.6
20260507125519 8 276 11.3 19.3 0.00 0.00 0.00 81 1017.5
20260507125015 8 287 12.9 24.1 0.00 0.00 0.00 82 1017.5
20260507124557 8 255 11.3 24.1 0.00 0.00 0.00 83 1017.5
20260507124015 8 275 12.9 20.9 0.00 0.00 0.00 83 1017.6
20260507123514 7 265 9.7 17.7 0.00 0.00 0.00 84 1017.6
20260507123046 7 275 9.7 17.7 0.00 0.00 0.00 84 1017.5
20260507122514 7 265 9.7 14.5 0.00 0.00 0.00 85 1017.4
20260507122012 7 264 8.0 16.1 0.00 0.00 0.00 85 1017.5
20260507121543 7 263 8.0 16.1 0.00 0.00 0.00 85 1017.6
20260507121013 7 265 8.0 16.1 0.00 0.00 0.00 85 1017.5
20260507120514 7 273 8.0 16.1 0.00 0.00 0.00 85 1017.5
20260507120045 7 265 8.0 14.5 0.00 0.00 0.00 85 1017.4
20260507115514 7 255 8.0 14.5 0.00 0.00 0.00 86 1017.5
20260507115014 7 264 8.0 14.5 0.00 0.00 0.00 86 1017.5
20260507114547 6 272 8.0 12.9 0.00 0.00 0.00 86 1017.6
20260507114014 6 257 6.4 12.9 0.00 0.00 0.00 85 1017.6
20260507113514 6 268 8.0 14.5 0.00 0.00 0.00 85 1017.6
20260507113045 6 260 9.7 14.5 0.00 0.00 0.00 86 1017.7
20260507112515 6 263 8.0 12.9 0.00 0.00 0.00 86 1017.5
20260507112013 6 270 9.7 14.5 0.00 0.00 0.00 85 1017.6
20260507111546 6 259 9.7 12.9 0.00 0.00 0.00 86 1017.6
20260507111014 6 267 8.0 12.9 0.00 0.00 0.00 86 1017.6
20260507110514 6 260 6.4 12.9 0.00 0.00 0.00 86 1017.7
20260507110049 6 257 8.0 12.9 0.00 0.00 0.00 86 1017.7
20260507105513 6 259 8.0 12.9 0.00 0.00 0.00 85 1017.8
20260507105014 7 247 6.4 11.3 0.00 0.00 0.00 85 1017.6
20260507104550 7 265 6.4 14.5 0.00 0.00 0.00 85 1017.8
20260507104016 7 265 8.0 14.5 0.00 0.00 0.00 85 1017.7
20260507103518 7 275 9.7 14.5 0.00 0.00 0.00 85 1017.8
20260507103044 7 254 8.0 12.9 0.00 0.00 0.00 85 1017.8
20260507102513 7 257 9.7 17.7 0.00 0.00 0.00 84 1017.7
20260507102017 7 255 11.3 17.7 0.00 0.00 0.00 84 1017.8
20260507101556 7 265 8.0 14.5 0.00 0.00 0.00 84 1017.9
20260507101021 7 266 9.7 14.5 0.00 0.00 0.00 84 1017.9
20260507100514 7 254 9.7 12.9 0.00 0.00 0.00 83 1018.0
20260507100055 7 265 8.0 16.1 0.00 0.00 0.00 83 1017.9
20260507095515 7 261 9.7 16.1 0.00 0.05 0.00 83 1018.0
20260507095014 7 259 9.7 14.5 0.00 0.05 0.00 83 1018.0
20260507094540 7 258 11.3 16.1 0.00 0.05 0.00 84 1018.0
20260507094013 7 262 9.7 16.1 0.00 0.05 0.00 83 1018.0
20260507093512 7 265 11.3 16.1 0.00 0.05 0.00 83 1018.0
20260507093039 7 257 9.7 16.1 0.00 0.05 0.00 83 1018.0
20260507092517 7 266 11.3 16.1 0.00 0.05 0.00 83 1018.1
20260507092016 7 264 6.4 12.9 0.00 0.05 0.00 83 1018.0
20260507091548 7 265 8.0 12.9 0.00 0.05 0.00 83 1018.1
20260507091013 7 260 8.0 14.5 0.00 0.05 0.00 83 1018.1
20260507090514 8 275 9.7 14.5 0.00 0.05 0.00 82 1018.1
20260507090049 8 270 11.3 14.5 0.00 0.05 0.00 83 1018.1
20260507085513 8 254 9.7 14.5 0.00 0.10 0.00 83 1018.0
20260507085016 8 274 9.7 14.5 0.00 0.10 0.00 83 1018.4
20260507084558 8 273 8.0 14.5 0.00 0.10 0.00 82 1018.4
20260507084015 8 261 11.3 16.1 0.00 0.10 0.00 82 1018.3
20260507083514 8 275 11.3 16.1 0.00 0.10 0.00 82 1018.4
20260507083103 8 276 11.3 17.7 0.00 0.10 0.00 82 1018.5
20260507082516 8 271 11.3 17.7 0.00 0.10 0.00 82 1018.6
20260507082015 8 273 9.7 16.1 0.00 0.10 0.00 82 1018.6
20260507081557 8 271 9.7 17.7 0.00 0.10 0.00 82 1018.6
20260507081015 8 281 11.3 17.7 0.00 0.10 0.00 82 1018.7
20260507080515 8 261 9.7 16.1 0.00 0.10 0.00 82 1018.7
20260507080047 8 273 9.7 14.5 0.00 0.10 0.00 82 1018.8
20260507075514 8 276 8.0 16.1 0.00 0.10 0.00 82 1018.9
20260507075016 8 278 6.4 16.1 0.00 0.10 0.00 81 1019.0
20260507074549 8 271 8.0 16.1 0.00 0.10 0.00 81 1019.0
20260507074015 8 299 9.7 14.5 0.00 0.10 0.00 82 1018.9
20260507073520 8 273 4.8 14.5 0.00 0.10 0.00 82 1019.1
20260507073053 8 298 6.4 14.5 0.00 0.10 0.00 82 1019.1
20260507072515 8 275 4.8 12.9 0.00 0.10 0.00 82 1019.0
20260507072016 8 280 4.8 11.3 0.00 0.10 0.00 81 1019.0
20260507071545 8 287 1.6 4.8 0.00 0.10 0.00 80 1019.2
20260507071014 8 284 1.6 9.7 0.00 0.10 0.00 80 1019.2
20260507070517 8 300 1.6 9.7 0.00 0.10 0.00 79 1019.3
20260507070046 8 299 3.2 11.3 0.00 0.10 0.00 79 1019.4
20260507065519 8 287 4.8 11.3 0.00 0.10 0.00 79 1019.5
20260507065016 8 284 3.2 12.9 0.00 0.10 0.00 79 1019.5
20260507064550 9 273 4.8 12.9 0.00 0.10 0.00 78 1019.5
20260507064015 9 279 4.8 14.5 0.00 0.10 0.00 78 1019.5
20260507063515 9 281 4.8 16.1 0.00 0.10 0.00 78 1019.5
20260507063047 9 275 8.0 16.1 0.00 0.10 0.00 77 1019.6
20260507062515 9 267 8.0 12.9 0.00 0.10 0.00 78 1019.6
20260507062201 9 279 6.4 12.9 0.00 0.10 0.00 77 1019.7
20260507061538 9 267 6.4 12.9 0.00 0.10 0.00 76 1019.5
20260507061014 9 269 4.8 9.7 0.00 0.10 0.00 76 1019.6
20260507060515 9 259 4.8 9.7 0.00 0.10 0.00 76 1019.5
20260507060039 9 268 3.2 4.8 0.00 0.10 0.00 76 1019.6
20260507055515 9 271 3.2 4.8 0.00 0.10 0.00 76 1019.6
20260507055015 9 261 3.2 4.8 0.00 0.10 0.00 76 1019.7
20260507054541 9 267 1.6 4.8 0.00 0.10 0.00 76 1019.8
20260507054015 9 279 1.6 4.8 0.00 0.10 0.00 75 1019.8
20260507053513 9 279 1.6 3.2 0.00 0.10 0.00 74 1019.9
20260507053045 10 279 0.0 3.2 0.00 0.10 0.00 72 1019.8
20260507052515 10 279 0.0 4.8 0.00 0.10 0.00 72 1019.9
20260507052013 10 279 0.0 4.8 0.00 0.10 0.00 72 1019.9
20260507051544 10 279 3.2 6.4 0.00 0.10 0.00 73 1019.9
20260507051015 10 274 3.2 6.4 0.00 0.10 0.00 73 1019.8
20260507050511 10 309 1.6 6.4 0.00 0.10 0.00 71 1019.9
20260507050040 10 307 1.6 6.4 0.00 0.10 0.00 71 1019.8
20260507045515 10 292 1.6 8.0 0.00 0.10 0.10 71 1019.8
20260507045017 10 275 3.2 12.9 0.00 0.10 0.10 71 1019.8
20260507044541 10 279 4.8 12.9 0.00 0.10 0.10 72 1019.9
20260507044018 10 276 6.4 9.7 0.00 0.10 0.10 72 1019.9
20260507043514 10 276 4.8 9.7 0.00 0.10 0.10 73 1019.9
20260507043049 10 269 4.8 6.4 0.00 0.10 0.10 74 1019.9
20260507042519 10 275 3.2 6.4 0.00 0.10 0.10 75 1020.0
20260507042015 10 300 0.0 3.2 0.00 0.10 0.10 74 1020.0
20260507041544 10 306 0.0 4.8 0.00 0.10 0.10 73 1019.9
20260507041015 10 303 0.0 4.8 0.00 0.10 0.10 73 1019.9
20260507040516 10 303 0.0 3.2 0.00 0.10 0.10 74 1019.9
20260507040043 10 276 0.0 3.2 0.00 0.10 0.10 74 1020.0
20260507035516 10 276 1.6 3.2 0.00 0.18 0.10 75 1019.9
20260507035016 10 276 0.0 1.6 0.00 0.18 0.10 74 1019.9
20260507034541 10 276 0.0 3.2 0.00 0.18 0.10 75 1019.8
20260507034018 10 276 0.0 3.2 0.00 0.18 0.10 76 1019.9
20260507033518 9 276 0.0 1.6 0.00 0.18 0.10 75 1019.9
20260507033039 9 276 0.0 1.6 0.00 0.18 0.10 74 1019.8
20260507032519 9 276 0.0 1.6 0.00 0.18 0.10 72 1019.8
20260507032016 10 276 0.0 3.2 0.00 0.18 0.10 71 1019.8
20260507031545 10 276 1.6 3.2 0.00 0.18 0.10 69 1019.8
20260507031020 10 276 1.6 3.2 0.00 0.18 0.10 67 1019.9
20260507030515 10 276 0.0 3.2 0.00 0.18 0.10 67 1019.8
20260507030037 10 276 0.0 4.8 0.00 0.18 0.10 67 1019.9
20260507025513 11 276 1.6 4.8 0.00 0.20 0.10 68 1019.7
20260507025016 11 273 1.6 6.4 0.00 0.20 0.10 69 1019.6
20260507024551 11 263 3.2 6.4 0.00 0.20 0.10 68 1019.6
20260507024016 11 259 3.2 4.8 0.00 0.20 0.10 69 1019.5
20260507023520 11 257 3.2 4.8 0.00 0.20 0.10 69 1019.5
20260507023051 11 271 1.6 4.8 0.00 0.20 0.10 68 1019.4
20260507022516 11 271 1.6 4.8 0.00 0.20 0.10 67 1019.4
20260507022014 11 271 0.0 4.8 0.00 0.20 0.10 68 1019.6
20260507021542 11 298 1.6 3.2 0.00 0.20 0.10 67 1019.6
20260507021018 11 298 0.0 3.2 0.00 0.20 0.10 65 1019.7
20260507020515 11 303 1.6 4.8 0.00 0.20 0.10 64 1019.7
20260507020052 10 305 1.6 4.8 0.00 0.20 0.10 64 1019.6
20260507015513 10 304 1.6 4.8 0.00 0.23 0.10 63 1019.6
20260507015015 11 304 1.6 4.8 0.00 0.23 0.10 63 1019.4
20260507014543 11 306 0.0 3.2 0.00 0.23 0.10 63 1019.3
20260507014016 11 302 0.0 3.2 0.00 0.23 0.10 62 1019.2
20260507013518 11 302 0.0 3.2 0.00 0.23 0.10 61 1019.2
20260507013048 11 302 1.6 4.8 0.00 0.23 0.10 61 1019.2
20260507012513 11 305 1.6 4.8 0.00 0.23 0.10 60 1019.2
20260507012014 11 305 1.6 4.8 0.00 0.23 0.10 59 1019.2
20260507011545 11 311 1.6 6.4 0.00 0.23 0.10 59 1019.0
20260507011012 12 315 1.6 4.8 0.00 0.23 0.10 58 1018.8
20260507010517 12 313 1.6 6.4 0.00 0.23 0.10 56 1018.9
20260507010044 12 323 3.2 9.7 0.00 0.23 0.10 55 1018.9
20260507005523 13 330 3.2 11.3 0.00 0.23 0.10 54 1018.9
20260507005015 13 315 3.2 8.0 0.00 0.23 0.10 52 1019.0
20260507004544 13 306 3.2 8.0 0.00 0.23 0.10 52 1018.9
20260507004014 13 309 1.6 12.9 0.00 0.23 0.10 53 1018.9
20260507003518 14 325 6.4 12.9 0.00 0.23 0.10 51 1019.0
20260507003039 14 320 3.2 9.7 0.00 0.23 0.10 51 1018.9
20260507002519 14 331 4.8 9.7 0.00 0.23 0.10 50 1018.8
20260507002015 14 327 4.8 12.9 0.00 0.23 0.10 51 1018.8
20260507001538 14 321 4.8 12.9 0.00 0.23 0.10 53 1018.9
20260507001016 13 346 4.8 8.0 0.00 0.23 0.10 52 1019.2
20260507000514 13 317 3.2 8.0 0.00 0.23 0.10 53 1019.2
20260507000053 13 338 3.2 9.7 0.00 0.23 0.10 53 1019.2
20260506235515 13 349 4.8 9.7 0.00 0.23 0.10 53 1019.2
20260506235016 13 355 3.2 8.0 0.00 0.23 0.10 53 1019.1
20260506234550 13 330 1.6 8.0 0.00 0.23 0.10 51 1019.1
20260506234014 14 355 3.2 8.0 0.00 0.23 0.10 51 1019.2
20260506233518 14 355 1.6 8.0 0.00 0.23 0.10 52 1019.2
20260506233048 14 29 4.8 12.9 0.00 0.23 0.10 50 1019.2
20260506232516 14 17 6.4 12.9 0.00 0.23 0.10 52 1019.3
20260506232014 14 345 6.4 12.9 0.00 0.23 0.10 50 1019.1
20260506231557 14 333 3.2 8.0 0.00 0.23 0.10 51 1019.1
20260506231015 14 307 4.8 8.0 0.00 0.23 0.10 53 1019.1
20260506230515 13 360 4.8 8.0 0.00 0.23 0.10 53 1019.2
20260506230051 13 22 3.2 8.0 0.00 0.23 0.10 52 1019.2
20260506225517 13 15 3.2 14.5 0.00 0.23 0.10 53 1019.4
20260506225016 13 355 6.4 14.5 0.00 0.23 0.10 53 1019.4
20260506224549 13 345 6.4 12.9 0.00 0.23 0.10 54 1019.3
20260506224016 13 10 4.8 12.9 0.00 0.23 0.10 51 1019.4
20260506223516 13 360 6.4 9.7 0.00 0.23 0.10 53 1019.3
20260506223052 13 20 4.8 14.5 0.00 0.23 0.10 53 1019.4
20260506222514 13 355 8.0 14.5 0.00 0.23 0.10 51 1019.3
20260506222020 13 360 4.8 9.7 0.00 0.23 0.10 54 1019.4
20260506221545 13 11 4.8 12.9 0.00 0.23 0.10 53 1019.4
20260506221019 13 335 8.0 12.9 0.00 0.23 0.10 52 1019.4
20260506220521 13 360 6.4 14.5 0.00 0.23 0.10 51 1019.5
20260506220045 14 347 6.4 14.5 0.00 0.23 0.10 51 1019.5
20260506215523 14 10 6.4 14.5 0.00 0.23 0.10 50 1019.5
20260506215016 14 30 8.0 14.5 0.00 0.23 0.10 50 1019.4
20260506214550 15 360 6.4 14.5 0.00 0.23 0.10 51 1019.4
20260506214016 15 340 4.8 16.1 0.00 0.23 0.10 49 1019.6
20260506213516 15 333 4.8 16.1 0.00 0.23 0.10 47 1019.6
20260506213104 15 23 4.8 11.3 0.00 0.23 0.10 49 1019.6
20260506212517 15 204 1.6 12.9 0.00 0.23 0.10 46 1019.7
20260506212014 15 24 1.6 14.5 0.00 0.23 0.10 46 1019.7
20260506211602 15 10 1.6 29.0 0.00 0.23 0.10 48 1019.7
20260506211017 15 330 6.4 29.0 0.00 0.23 0.10 52 1019.8
20260506210515 15 205 1.6 11.3 0.00 0.23 0.10 46 1019.7
20260506210047 15 98 6.4 14.5 0.00 0.23 0.10 48 1019.8
20260506205514 15 48 3.2 16.1 0.00 0.23 0.10 49 1019.9
20260506205016 15 350 4.8 17.7 0.00 0.23 0.10 50 1020.0
20260506204550 15 324 6.4 17.7 0.00 0.23 0.10 50 1020.0
20260506204018 15 344 6.4 16.1 0.00 0.23 0.10 50 1020.0
20260506203516 14 11 6.4 16.1 0.00 0.23 0.10 50 1020.2
20260506203047 14 355 3.2 16.1 0.00 0.23 0.10 55 1020.4
20260506202518 13 11 9.7 16.1 0.00 0.23 0.10 51 1020.4
20260506202217 13 11 6.4 16.1 0.00 0.23 0.10 54 1020.4
20260506201538 14 47 9.7 16.1 0.00 0.23 0.10 51 1020.4
20260506201012 14 37 8.0 14.5 0.00 0.23 0.10 54 1020.4
20260506200509 13 83 3.2 14.5 0.00 0.23 0.10 54 1020.6
20260506200032 13 61 4.8 16.1 0.00 0.23 0.10 49 1020.5
20260506195509 14 137 6.4 16.1 0.00 0.23 0.10 50 1020.7
20260506195011 14 82 4.8 9.7 0.00 0.23 0.10 51 1020.8
20260506194532 14 18 0.0 9.7 0.00 0.23 0.10 45 1020.8
20260506194013 15 335 4.8 9.7 0.00 0.23 0.10 51 1020.8
20260506193509 14 270 1.6 9.7 0.00 0.23 0.10 47 1021.0
20260506193031 14 339 0.0 14.5 0.00 0.23 0.10 47 1021.1
20260506192510 14 349 4.8 16.1 0.00 0.23 0.10 50 1021.1
20260506192011 14 360 6.4 16.1 0.00 0.23 0.10 51 1021.0
20260506191535 14 350 6.4 17.7 0.00 0.23 0.10 50 1021.0
20260506191012 13 9 8.0 17.7 0.00 0.23 0.10 50 1020.9
20260506190516 13 338 3.2 14.5 0.00 0.23 0.10 51 1020.9
20260506190030 13 24 3.2 12.9 0.00 0.23 0.10 47 1021.0
20260506185511 13 72 3.2 12.9 0.00 0.23 0.10 52 1020.9
20260506185014 13 121 3.2 16.1 0.00 0.23 0.10 46 1020.9
20260506184529 13 135 3.2 16.1 0.00 0.23 0.10 47 1021.0
20260506184016 13 80 6.4 12.9 0.00 0.23 0.10 52 1021.1
20260506183510 13 208 3.2 12.9 0.00 0.23 0.10 50 1021.1
20260506183041 13 99 6.4 14.5 0.00 0.23 0.10 53 1021.2
20260506182511 13 53 0.0 6.4 0.00 0.23 0.10 46 1021.1
20260506182012 13 166 1.6 8.0 0.00 0.23 0.10 45 1021.1
20260506181532 13 119 3.2 12.9 0.00 0.23 0.10 45 1021.2
20260506181013 13 86 4.8 19.3 0.00 0.23 0.10 52 1021.1
20260506180513 13 43 8.0 19.3 0.00 0.23 0.10 50 1021.1
20260506180030 12 29 8.0 16.1 0.00 0.23 0.10 55 1021.4
20260506175512 12 71 6.4 14.5 0.00 0.23 0.10 47 1021.3
20260506175010 12 51 6.4 14.5 0.00 0.23 0.10 49 1021.3
20260506174531 12 73 4.8 14.5 0.00 0.23 0.10 45 1021.3
20260506174011 13 59 4.8 14.5 0.00 0.23 0.10 52 1021.2
20260506173511 13 17 6.4 14.5 0.00 0.23 0.10 50 1021.1
20260506173031 13 315 0.0 16.1 0.00 0.23 0.10 48 1021.4
20260506172513 12 79 9.7 16.1 0.00 0.23 0.10 52 1021.6
20260506172011 12 84 3.2 8.0 0.00 0.23 0.10 51 1021.6
20260506171538 12 90 1.6 17.7 0.00 0.23 0.10 52 1021.7
20260506171017 12 61 6.4 17.7 0.00 0.23 0.10 53 1021.7
20260506170515 12 44 8.0 17.7 0.00 0.23 0.10 52 1021.6
20260506170046 12 40 3.2 14.5 0.00 0.23 0.10 54 1021.7
20260506165513 12 5 4.8 9.7 0.00 0.23 0.10 57 1021.6
20260506165014 12 142 1.6 6.4 0.00 0.23 0.10 55 1021.6
20260506164530 12 19 1.6 9.7 0.00 0.23 0.10 59 1021.7
20260506164016 12 35 4.8 11.3 0.00 0.23 0.10 64 1021.7
20260506163511 11 16 6.4 11.3 0.00 0.23 0.10 61 1021.7
20260506163035 11 141 3.2 20.9 0.00 0.23 0.10 54 1021.8
20260506162511 11 21 11.3 20.9 0.00 0.23 0.10 60 1021.7
20260506162016 11 46 8.0 16.1 0.00 0.23 0.10 60 1021.6
20260506161533 11 360 1.6 6.4 0.00 0.23 0.10 64 1021.6
20260506161013 11 339 1.6 6.4 0.00 0.23 0.10 65 1021.7
20260506160510 11 351 1.6 6.4 0.00 0.23 0.10 68 1021.7
20260506160039 10 306 0.0 9.7 0.00 0.23 0.10 72 1021.6
20260506155510 10 329 4.8 9.7 0.00 0.23 0.10 75 1021.6
20260506155013 10 25 1.6 12.9 0.00 0.23 0.10 77 1021.6
20260506154534 10 322 4.8 14.5 0.00 0.23 0.10 81 1021.4
20260506154013 10 327 6.4 14.5 0.00 0.23 0.10 81 1021.4
20260506153511 10 309 8.0 14.5 0.00 0.23 0.10 82 1021.3
20260506153030 10 355 8.0 14.5 0.00 0.23 0.10 84 1021.5
20260506152511 9 345 4.8 12.9 0.00 0.23 0.10 83 1021.6
20260506152015 9 319 6.4 14.5 0.00 0.23 0.10 84 1021.6
20260506151537 9 327 6.4 14.5 0.00 0.23 0.10 84 1021.7
20260506151014 9 323 4.8 12.9 0.00 0.23 0.10 85 1021.8
20260506150513 8 303 4.8 12.9 0.00 0.23 0.10 85 1021.7
20260506150035 8 340 6.4 12.9 0.00 0.23 0.10 86 1021.6
20260506145514 8 311 4.8 8.0 0.00 0.23 0.10 88 1021.5